Year,Month,Day,Hour,Minute,Value (Times are PST for temperature in C)
2017,04,10,00,00,5.20
2017,04,10,00,01,5.20
2017,04,10,00,02,5.20
2017,04,10,00,03,5.20
2017,04,10,00,04,5.20
2017,04,10,00,05,5.20
2017,04,10,00,06,5.20
2017,04,10,00,07,5.10
2017,04,10,00,08,5.10
2017,04,10,00,09,5.10
2017,04,10,00,10,5.10
2017,04,10,00,11,5.10
2017,04,10,00,12,5.10
2017,04,10,00,13,5.10
2017,04,10,00,14,5.10
2017,04,10,00,15,5.10
2017,04,10,00,16,5.10
2017,04,10,00,17,5.10
2017,04,10,00,18,5.10
2017,04,10,00,19,5.10
2017,04,10,00,20,5.00
2017,04,10,00,21,5.00
2017,04,10,00,22,5.00
2017,04,10,00,23,5.00
2017,04,10,00,24,5.00
2017,04,10,00,25,5.00
2017,04,10,00,26,5.00
2017,04,10,00,27,5.00
2017,04,10,00,28,5.00
2017,04,10,00,29,5.00
2017,04,10,00,30,5.00
2017,04,10,00,31,5.00
2017,04,10,00,32,5.10
2017,04,10,00,33,5.10
2017,04,10,00,34,5.10
2017,04,10,00,35,5.10
2017,04,10,00,36,5.10
2017,04,10,00,37,5.10
2017,04,10,00,38,5.10
2017,04,10,00,39,5.10
2017,04,10,00,40,5.10
2017,04,10,00,41,5.10
2017,04,10,00,42,5.10
2017,04,10,00,43,5.10
2017,04,10,00,44,5.10
2017,04,10,00,45,5.10
2017,04,10,00,46,5.10
2017,04,10,00,47,5.10
2017,04,10,00,48,5.10
2017,04,10,00,49,5.10
2017,04,10,00,50,5.10
2017,04,10,00,51,5.10
2017,04,10,00,52,5.10
2017,04,10,00,53,5.10
2017,04,10,00,54,5.10
2017,04,10,00,55,5.10
2017,04,10,00,56,5.10
2017,04,10,00,57,5.10
2017,04,10,00,58,5.10
2017,04,10,00,59,5.10
2017,04,10,01,00,5.10
2017,04,10,01,01,5.10
2017,04,10,01,02,5.10
2017,04,10,01,03,5.10
2017,04,10,01,04,5.10
2017,04,10,01,05,5.10
2017,04,10,01,06,5.10
2017,04,10,01,07,5.10
2017,04,10,01,08,5.10
2017,04,10,01,09,5.10
2017,04,10,01,10,5.10
2017,04,10,01,11,5.10
2017,04,10,01,12,5.10
2017,04,10,01,13,5.10
2017,04,10,01,14,5.10
2017,04,10,01,15,5.10
2017,04,10,01,16,5.10
2017,04,10,01,17,5.10
2017,04,10,01,18,5.10
2017,04,10,01,19,5.10
2017,04,10,01,20,5.10
2017,04,10,01,21,5.10
2017,04,10,01,22,5.10
2017,04,10,01,23,5.10
2017,04,10,01,24,5.10
2017,04,10,01,25,5.00
2017,04,10,01,26,5.00
2017,04,10,01,27,5.00
2017,04,10,01,28,5.00
2017,04,10,01,29,5.00
2017,04,10,01,30,5.00
2017,04,10,01,31,5.00
2017,04,10,01,32,5.00
2017,04,10,01,33,5.00
2017,04,10,01,34,5.00
2017,04,10,01,35,5.00
2017,04,10,01,36,5.00
2017,04,10,01,37,5.00
2017,04,10,01,38,5.00
2017,04,10,01,39,5.00
2017,04,10,01,40,4.90
2017,04,10,01,41,4.90
2017,04,10,01,42,4.90
2017,04,10,01,43,4.90
2017,04,10,01,44,4.90
2017,04,10,01,45,4.90
2017,04,10,01,46,4.90
2017,04,10,01,47,4.90
2017,04,10,01,48,4.90
2017,04,10,01,49,4.90
2017,04,10,01,50,4.90
2017,04,10,01,51,4.90
2017,04,10,01,52,4.90
2017,04,10,01,53,4.90
2017,04,10,01,54,4.90
2017,04,10,01,55,4.90
2017,04,10,01,56,4.90
2017,04,10,01,57,4.90
2017,04,10,01,58,4.80
2017,04,10,01,59,4.80
2017,04,10,02,00,4.80
2017,04,10,02,01,4.80
2017,04,10,02,02,4.80
2017,04,10,02,03,4.80
2017,04,10,02,04,4.80
2017,04,10,02,05,4.80
2017,04,10,02,06,4.80
2017,04,10,02,07,4.80
2017,04,10,02,08,4.80
2017,04,10,02,09,4.80
2017,04,10,02,10,4.80
2017,04,10,02,11,4.80
2017,04,10,02,12,4.80
2017,04,10,02,13,4.80
2017,04,10,02,14,4.80
2017,04,10,02,15,4.80
2017,04,10,02,16,4.70
2017,04,10,02,17,4.70
2017,04,10,02,18,4.70
2017,04,10,02,19,4.70
2017,04,10,02,20,4.70
2017,04,10,02,21,4.70
2017,04,10,02,22,4.70
2017,04,10,02,23,4.70
2017,04,10,02,24,4.70
2017,04,10,02,25,4.70
2017,04,10,02,26,4.70
2017,04,10,02,27,4.70
2017,04,10,02,28,4.70
2017,04,10,02,29,4.70
2017,04,10,02,30,4.70
2017,04,10,02,31,4.70
2017,04,10,02,32,4.70
2017,04,10,02,33,4.70
2017,04,10,02,34,4.70
2017,04,10,02,35,4.70
2017,04,10,02,36,4.80
2017,04,10,02,37,4.80
2017,04,10,02,38,4.80
2017,04,10,02,39,4.80
2017,04,10,02,40,4.80
2017,04,10,02,41,4.80
2017,04,10,02,42,4.80
2017,04,10,02,43,4.80
2017,04,10,02,44,4.80
2017,04,10,02,45,4.80
2017,04,10,02,46,4.80
2017,04,10,02,47,4.90
2017,04,10,02,48,4.90
2017,04,10,02,49,4.90
2017,04,10,02,50,4.90
2017,04,10,02,51,4.90
2017,04,10,02,52,4.90
2017,04,10,02,53,4.90
2017,04,10,02,54,4.90
2017,04,10,02,55,4.90
2017,04,10,02,56,4.90
2017,04,10,02,57,4.90
2017,04,10,02,58,4.90
2017,04,10,02,59,4.90
2017,04,10,03,00,4.90
2017,04,10,03,01,4.90
2017,04,10,03,02,4.90
2017,04,10,03,03,4.90
2017,04,10,03,04,4.90
2017,04,10,03,05,4.90
2017,04,10,03,06,4.90
2017,04,10,03,07,4.90
2017,04,10,03,08,4.90
2017,04,10,03,09,4.90
2017,04,10,03,10,4.90
2017,04,10,03,11,4.90
2017,04,10,03,12,4.90
2017,04,10,03,13,4.90
2017,04,10,03,14,4.90
2017,04,10,03,15,4.90
2017,04,10,03,16,4.90
2017,04,10,03,17,4.90
2017,04,10,03,18,4.90
2017,04,10,03,19,4.90
2017,04,10,03,20,4.90
2017,04,10,03,21,4.90
2017,04,10,03,22,4.90
2017,04,10,03,23,4.90
2017,04,10,03,24,4.80
2017,04,10,03,25,4.80
2017,04,10,03,26,4.80
2017,04,10,03,27,4.80
2017,04,10,03,28,4.90
2017,04,10,03,29,4.90
2017,04,10,03,30,4.90
2017,04,10,03,31,4.90
2017,04,10,03,32,4.90
2017,04,10,03,33,4.90
2017,04,10,03,34,4.90
2017,04,10,03,35,4.90
2017,04,10,03,36,4.90
2017,04,10,03,37,4.90
2017,04,10,03,38,4.90
2017,04,10,03,39,4.90
2017,04,10,03,40,4.90
2017,04,10,03,41,4.90
2017,04,10,03,42,4.90
2017,04,10,03,43,4.80
2017,04,10,03,44,4.80
2017,04,10,03,45,4.80
2017,04,10,03,46,4.80
2017,04,10,03,47,4.80
2017,04,10,03,48,4.80
2017,04,10,03,49,4.80
2017,04,10,03,50,4.80
2017,04,10,03,51,4.80
2017,04,10,03,52,4.80
2017,04,10,03,53,4.80
2017,04,10,03,54,4.80
2017,04,10,03,55,4.80
2017,04,10,03,56,4.80
2017,04,10,03,57,4.80
2017,04,10,03,58,4.80
2017,04,10,03,59,4.80
2017,04,10,04,00,4.80
2017,04,10,04,01,4.80
2017,04,10,04,02,4.80
2017,04,10,04,03,4.80
2017,04,10,04,04,4.80
2017,04,10,04,05,4.80
2017,04,10,04,06,4.80
2017,04,10,04,07,4.80
2017,04,10,04,08,4.80
2017,04,10,04,09,4.80
2017,04,10,04,10,4.80
2017,04,10,04,11,4.80
2017,04,10,04,12,4.80
2017,04,10,04,13,4.80
2017,04,10,04,14,4.80
2017,04,10,04,15,4.80
2017,04,10,04,16,4.80
2017,04,10,04,17,4.80
2017,04,10,04,18,4.80
2017,04,10,04,19,4.80
2017,04,10,04,20,4.80
2017,04,10,04,21,4.80
2017,04,10,04,22,4.80
2017,04,10,04,23,4.80
2017,04,10,04,24,4.80
2017,04,10,04,25,4.80
2017,04,10,04,26,4.80
2017,04,10,04,27,4.80
2017,04,10,04,28,4.90
2017,04,10,04,29,4.90
2017,04,10,04,30,4.90
2017,04,10,04,31,4.90
2017,04,10,04,32,4.90
2017,04,10,04,33,4.90
2017,04,10,04,34,4.90
2017,04,10,04,35,4.90
2017,04,10,04,36,4.90
2017,04,10,04,37,4.90
2017,04,10,04,38,5.00
2017,04,10,04,39,5.00
2017,04,10,04,40,5.00
2017,04,10,04,41,5.00
2017,04,10,04,42,5.10
2017,04,10,04,43,5.10
2017,04,10,04,44,5.10
2017,04,10,04,45,5.10
2017,04,10,04,46,5.10
2017,04,10,04,47,5.10
2017,04,10,04,48,5.10
2017,04,10,04,49,5.10
2017,04,10,04,50,5.10
2017,04,10,04,51,5.10
2017,04,10,04,52,5.10
2017,04,10,04,53,5.10
2017,04,10,04,54,5.10
2017,04,10,04,55,5.10
2017,04,10,04,56,5.10
2017,04,10,04,57,5.10
2017,04,10,04,58,5.10
2017,04,10,04,59,5.10
2017,04,10,05,00,5.10
2017,04,10,05,01,5.20
2017,04,10,05,02,5.20
2017,04,10,05,03,5.20
2017,04,10,05,04,5.20
2017,04,10,05,05,5.20
2017,04,10,05,06,5.20
2017,04,10,05,07,5.20
2017,04,10,05,08,5.20
2017,04,10,05,09,5.20
2017,04,10,05,10,5.20
2017,04,10,05,11,5.20
2017,04,10,05,12,5.20
2017,04,10,05,13,5.20
2017,04,10,05,14,5.20
2017,04,10,05,15,5.20
2017,04,10,05,16,5.20
2017,04,10,05,17,5.20
2017,04,10,05,18,5.20
2017,04,10,05,19,5.20
2017,04,10,05,20,5.20
2017,04,10,05,21,5.20
2017,04,10,05,22,5.20
2017,04,10,05,23,5.20
2017,04,10,05,24,5.20
2017,04,10,05,25,5.20
2017,04,10,05,26,5.20
2017,04,10,05,27,5.20
2017,04,10,05,28,5.20
2017,04,10,05,29,5.20
2017,04,10,05,30,5.20
2017,04,10,05,31,5.20
2017,04,10,05,32,5.20
2017,04,10,05,33,5.20
2017,04,10,05,34,5.20
2017,04,10,05,35,5.20
2017,04,10,05,36,5.20
2017,04,10,05,37,5.20
2017,04,10,05,38,5.20
2017,04,10,05,39,5.20
2017,04,10,05,40,5.20
2017,04,10,05,41,5.20
2017,04,10,05,42,5.20
2017,04,10,05,43,5.20
2017,04,10,05,44,5.20
2017,04,10,05,45,5.20
2017,04,10,05,46,5.20
2017,04,10,05,47,5.20
2017,04,10,05,48,5.20
2017,04,10,05,49,5.20
2017,04,10,05,50,5.20
2017,04,10,05,51,5.20
2017,04,10,05,52,5.20
2017,04,10,05,53,5.20
2017,04,10,05,54,5.20
2017,04,10,05,55,5.20
2017,04,10,05,56,5.20
2017,04,10,05,57,5.20
2017,04,10,05,58,5.10
2017,04,10,05,59,5.10
2017,04,10,06,00,5.10
2017,04,10,06,01,5.10
2017,04,10,06,02,5.10
2017,04,10,06,03,5.10
2017,04,10,06,04,5.10
2017,04,10,06,05,5.10
2017,04,10,06,06,5.10
2017,04,10,06,07,5.10
2017,04,10,06,08,5.10
2017,04,10,06,09,5.00
2017,04,10,06,10,5.00
2017,04,10,06,11,5.00
2017,04,10,06,12,5.00
2017,04,10,06,13,5.00
2017,04,10,06,14,5.00
2017,04,10,06,15,5.00
2017,04,10,06,16,5.00
2017,04,10,06,17,5.00
2017,04,10,06,18,4.90
2017,04,10,06,19,4.90
2017,04,10,06,20,4.90
2017,04,10,06,21,4.90
2017,04,10,06,22,4.90
2017,04,10,06,23,4.90
2017,04,10,06,24,4.90
2017,04,10,06,25,4.90
2017,04,10,06,26,4.80
2017,04,10,06,27,4.80
2017,04,10,06,28,4.80
2017,04,10,06,29,4.80
2017,04,10,06,30,4.80
2017,04,10,06,31,4.80
2017,04,10,06,32,4.80
2017,04,10,06,33,4.70
2017,04,10,06,34,4.70
2017,04,10,06,35,4.70
2017,04,10,06,36,4.70
2017,04,10,06,37,4.70
2017,04,10,06,38,4.70
2017,04,10,06,39,4.70
2017,04,10,06,40,4.70
2017,04,10,06,41,4.60
2017,04,10,06,42,4.60
2017,04,10,06,43,4.60
2017,04,10,06,44,4.60
2017,04,10,06,45,4.60
2017,04,10,06,46,4.60
2017,04,10,06,47,4.60
2017,04,10,06,48,4.60
2017,04,10,06,49,4.60
2017,04,10,06,50,4.60
2017,04,10,06,51,4.50
2017,04,10,06,52,4.50
2017,04,10,06,53,4.50
2017,04,10,06,54,4.50
2017,04,10,06,55,4.50
2017,04,10,06,56,4.50
2017,04,10,06,57,4.50
2017,04,10,06,58,4.50
2017,04,10,06,59,4.50
2017,04,10,07,00,4.50
2017,04,10,07,01,4.50
2017,04,10,07,02,4.50
2017,04,10,07,03,4.50
2017,04,10,07,04,4.50
2017,04,10,07,05,4.50
2017,04,10,07,06,4.50
2017,04,10,07,07,4.50
2017,04,10,07,08,4.50
2017,04,10,07,09,4.50
2017,04,10,07,10,4.50
2017,04,10,07,11,4.50
2017,04,10,07,12,4.50
2017,04,10,07,13,4.50
2017,04,10,07,14,4.50
2017,04,10,07,15,4.50
2017,04,10,07,16,4.50
2017,04,10,07,17,4.50
2017,04,10,07,18,4.50
2017,04,10,07,19,4.40
2017,04,10,07,20,4.40
2017,04,10,07,21,4.40
2017,04,10,07,22,4.40
2017,04,10,07,23,4.40
2017,04,10,07,24,4.40
2017,04,10,07,25,4.40
2017,04,10,07,26,4.40
2017,04,10,07,27,4.40
2017,04,10,07,28,4.50
2017,04,10,07,29,4.50
2017,04,10,07,30,4.50
2017,04,10,07,31,4.50
2017,04,10,07,32,4.50
2017,04,10,07,33,4.50
2017,04,10,07,34,4.50
2017,04,10,07,35,4.50
2017,04,10,07,36,4.50
2017,04,10,07,37,4.40
2017,04,10,07,38,4.40
2017,04,10,07,39,4.40
2017,04,10,07,40,4.40
2017,04,10,07,41,4.40
2017,04,10,07,42,4.40
2017,04,10,07,43,4.40
2017,04,10,07,44,4.40
2017,04,10,07,45,4.40
2017,04,10,07,46,4.40
2017,04,10,07,47,4.40
2017,04,10,07,48,4.40
2017,04,10,07,49,4.40
2017,04,10,07,50,4.40
2017,04,10,07,51,4.40
2017,04,10,07,52,4.40
2017,04,10,07,53,4.40
2017,04,10,07,54,4.40
2017,04,10,07,55,4.40
2017,04,10,07,56,4.40
2017,04,10,07,57,4.40
2017,04,10,07,58,4.40
2017,04,10,07,59,4.40
2017,04,10,08,00,4.40
2017,04,10,08,01,4.40
2017,04,10,08,02,4.40
2017,04,10,08,03,4.40
2017,04,10,08,04,4.40
2017,04,10,08,05,4.40
2017,04,10,08,06,4.50
2017,04,10,08,07,4.50
2017,04,10,08,08,4.50
2017,04,10,08,09,4.50
2017,04,10,08,10,4.50
2017,04,10,08,11,4.50
2017,04,10,08,12,4.60
2017,04,10,08,13,4.60
2017,04,10,08,14,4.60
2017,04,10,08,15,4.60
2017,04,10,08,16,4.60
2017,04,10,08,17,4.60
2017,04,10,08,18,4.60
2017,04,10,08,19,4.70
2017,04,10,08,20,4.70
2017,04,10,08,21,4.70
2017,04,10,08,22,4.70
2017,04,10,08,23,4.70
2017,04,10,08,24,4.70
2017,04,10,08,25,4.70
2017,04,10,08,26,4.70
2017,04,10,08,27,4.70
2017,04,10,08,28,4.70
2017,04,10,08,29,4.70
2017,04,10,08,30,4.70
2017,04,10,08,31,4.70
2017,04,10,08,32,4.70
2017,04,10,08,33,4.70
2017,04,10,08,34,4.80
2017,04,10,08,35,4.80
2017,04,10,08,36,4.80
2017,04,10,08,37,4.80
2017,04,10,08,38,4.80
2017,04,10,08,39,4.80
2017,04,10,08,40,4.80
2017,04,10,08,41,4.80
2017,04,10,08,42,4.70
2017,04,10,08,43,4.70
2017,04,10,08,44,4.70
2017,04,10,08,45,4.70
2017,04,10,08,46,4.70
2017,04,10,08,47,4.70
2017,04,10,08,48,4.70
2017,04,10,08,49,4.70
2017,04,10,08,50,4.70
2017,04,10,08,51,4.70
2017,04,10,08,52,4.70
2017,04,10,08,53,4.70
2017,04,10,08,54,4.80
2017,04,10,08,55,4.80
2017,04,10,08,56,4.90
2017,04,10,08,57,4.90
2017,04,10,08,58,4.90
2017,04,10,08,59,5.00
2017,04,10,09,00,5.00
2017,04,10,09,01,5.10
2017,04,10,09,02,5.20
2017,04,10,09,03,5.20
2017,04,10,09,04,5.30
2017,04,10,09,05,5.30
2017,04,10,09,06,5.40
2017,04,10,09,07,5.60
2017,04,10,09,08,5.70
2017,04,10,09,09,5.80
2017,04,10,09,10,5.80
2017,04,10,09,11,5.90
2017,04,10,09,12,6.00
2017,04,10,09,13,6.10
2017,04,10,09,14,6.10
2017,04,10,09,15,6.20
2017,04,10,09,16,6.30
2017,04,10,09,17,6.40
2017,04,10,09,18,6.50
2017,04,10,09,19,6.50
2017,04,10,09,20,6.60
2017,04,10,09,21,6.70
2017,04,10,09,22,6.80
2017,04,10,09,23,6.80
2017,04,10,09,24,6.90
2017,04,10,09,25,6.90
2017,04,10,09,26,6.90
2017,04,10,09,27,7.00
2017,04,10,09,28,7.00
2017,04,10,09,29,7.10
2017,04,10,09,30,7.20
2017,04,10,09,31,7.20
2017,04,10,09,32,7.30
2017,04,10,09,33,7.40
2017,04,10,09,34,7.40
2017,04,10,09,35,7.50
2017,04,10,09,36,7.60
2017,04,10,09,37,7.70
2017,04,10,09,38,7.80
2017,04,10,09,39,7.90
2017,04,10,09,40,8.00
2017,04,10,09,41,8.00
2017,04,10,09,42,8.10
2017,04,10,09,43,8.10
2017,04,10,09,44,8.10
2017,04,10,09,45,8.10
2017,04,10,09,46,8.20
2017,04,10,09,47,8.20
2017,04,10,09,48,8.10
2017,04,10,09,49,8.10
2017,04,10,09,50,8.20
2017,04,10,09,51,8.20
2017,04,10,09,52,8.20
2017,04,10,09,53,8.20
2017,04,10,09,54,8.20
2017,04,10,09,55,8.30
2017,04,10,09,56,8.30
2017,04,10,09,57,8.40
2017,04,10,09,58,8.40
2017,04,10,09,59,8.40
2017,04,10,10,00,8.40
2017,04,10,10,01,8.50
2017,04,10,10,02,8.50
2017,04,10,10,03,8.60
2017,04,10,10,04,8.70
2017,04,10,10,05,8.80
2017,04,10,10,06,8.90
2017,04,10,10,07,9.00
2017,04,10,10,08,9.00
2017,04,10,10,09,9.00
2017,04,10,10,10,9.00
2017,04,10,10,11,9.00
2017,04,10,10,12,9.10
2017,04,10,10,13,9.10
2017,04,10,10,14,9.10
2017,04,10,10,15,9.20
2017,04,10,10,16,9.20
2017,04,10,10,17,9.20
2017,04,10,10,18,9.30
2017,04,10,10,19,9.40
2017,04,10,10,20,9.50
2017,04,10,10,21,9.50
2017,04,10,10,22,9.50
2017,04,10,10,23,9.50
2017,04,10,10,24,9.50
2017,04,10,10,25,9.40
2017,04,10,10,26,9.40
2017,04,10,10,27,9.30
2017,04,10,10,28,9.20
2017,04,10,10,29,9.20
2017,04,10,10,30,9.20
2017,04,10,10,31,9.10
2017,04,10,10,32,9.10
2017,04,10,10,33,9.20
2017,04,10,10,34,9.20
2017,04,10,10,35,9.30
2017,04,10,10,36,9.40
2017,04,10,10,37,9.40
2017,04,10,10,38,9.50
2017,04,10,10,39,9.60
2017,04,10,10,40,9.60
2017,04,10,10,41,9.70
2017,04,10,10,42,9.70
2017,04,10,10,43,9.80
2017,04,10,10,44,9.80
2017,04,10,10,45,9.80
2017,04,10,10,46,9.80
2017,04,10,10,47,9.70
2017,04,10,10,48,9.70
2017,04,10,10,49,9.70
2017,04,10,10,50,9.70
2017,04,10,10,51,9.60
2017,04,10,10,52,9.60
2017,04,10,10,53,9.60
2017,04,10,10,54,9.60
2017,04,10,10,55,9.50
2017,04,10,10,56,9.50
2017,04,10,10,57,9.60
2017,04,10,10,58,9.60
2017,04,10,10,59,9.70
2017,04,10,11,00,9.80
2017,04,10,11,01,9.80
2017,04,10,11,02,9.80
2017,04,10,11,03,9.80
2017,04,10,11,04,9.80
2017,04,10,11,05,9.80
2017,04,10,11,06,9.70
2017,04,10,11,07,9.60
2017,04,10,11,08,9.60
2017,04,10,11,09,9.60
2017,04,10,11,10,9.50
2017,04,10,11,11,9.40
2017,04,10,11,12,9.30
2017,04,10,11,13,9.30
2017,04,10,11,14,9.20
2017,04,10,11,15,9.10
2017,04,10,11,16,9.10
2017,04,10,11,17,9.10
2017,04,10,11,18,9.10
2017,04,10,11,19,9.20
2017,04,10,11,20,9.20
2017,04,10,11,21,9.20
2017,04,10,11,22,9.20
2017,04,10,11,23,9.20
2017,04,10,11,24,9.20
2017,04,10,11,25,9.20
2017,04,10,11,26,9.20
2017,04,10,11,27,9.20
2017,04,10,11,28,9.30
2017,04,10,11,29,9.30
2017,04,10,11,30,9.20
2017,04,10,11,31,9.20
2017,04,10,11,32,9.20
2017,04,10,11,33,9.10
2017,04,10,11,34,9.10
2017,04,10,11,35,9.10
2017,04,10,11,36,9.10
2017,04,10,11,37,9.10
2017,04,10,11,38,9.20
2017,04,10,11,39,9.20
2017,04,10,11,40,9.20
2017,04,10,11,41,9.30
2017,04,10,11,42,9.30
2017,04,10,11,43,9.40
2017,04,10,11,44,9.50
2017,04,10,11,45,9.50
2017,04,10,11,46,9.60
2017,04,10,11,47,9.60
2017,04,10,11,48,9.60
2017,04,10,11,49,9.70
2017,04,10,11,50,9.70
2017,04,10,11,51,9.70
2017,04,10,11,52,9.60
2017,04,10,11,53,9.60
2017,04,10,11,54,9.50
2017,04,10,11,55,9.40
2017,04,10,11,56,9.30
2017,04,10,11,57,9.20
2017,04,10,11,58,9.20
2017,04,10,11,59,9.10
2017,04,10,12,00,9.10
2017,04,10,12,01,9.10
2017,04,10,12,02,9.10
2017,04,10,12,03,9.00
2017,04,10,12,04,9.00
2017,04,10,12,05,8.90
2017,04,10,12,06,8.90
2017,04,10,12,07,8.90
2017,04,10,12,08,8.90
2017,04,10,12,09,8.80
2017,04,10,12,10,8.80
2017,04,10,12,11,8.80
2017,04,10,12,12,8.80
2017,04,10,12,13,8.80
2017,04,10,12,14,8.80
2017,04,10,12,15,8.80
2017,04,10,12,16,8.80
2017,04,10,12,17,8.80
2017,04,10,12,18,8.80
2017,04,10,12,19,8.80
2017,04,10,12,20,8.80
2017,04,10,12,21,8.80
2017,04,10,12,22,8.80
2017,04,10,12,23,8.80
2017,04,10,12,24,8.80
2017,04,10,12,25,8.80
2017,04,10,12,26,8.80
2017,04,10,12,27,8.90
2017,04,10,12,28,8.80
2017,04,10,12,29,8.80
2017,04,10,12,30,8.80
2017,04,10,12,31,8.90
2017,04,10,12,32,8.90
2017,04,10,12,33,8.90
2017,04,10,12,34,8.90
2017,04,10,12,35,8.90
2017,04,10,12,36,8.90
2017,04,10,12,37,8.90
2017,04,10,12,38,8.90
2017,04,10,12,39,8.90
2017,04,10,12,40,8.90
2017,04,10,12,41,8.90
2017,04,10,12,42,8.90
2017,04,10,12,43,9.00
2017,04,10,12,44,9.00
2017,04,10,12,45,9.00
2017,04,10,12,46,9.00
2017,04,10,12,47,8.90
2017,04,10,12,48,8.90
2017,04,10,12,49,8.80
2017,04,10,12,50,8.70
2017,04,10,12,51,8.70
2017,04,10,12,52,8.60
2017,04,10,12,53,8.60
2017,04,10,12,54,8.50
2017,04,10,12,55,8.50
2017,04,10,12,56,8.40
2017,04,10,12,57,8.40
2017,04,10,12,58,8.40
2017,04,10,12,59,8.40
2017,04,10,13,00,8.20
2017,04,10,13,01,8.00
2017,04,10,13,02,7.70
2017,04,10,13,03,7.40
2017,04,10,13,04,7.10
2017,04,10,13,05,6.80
2017,04,10,13,06,6.70
2017,04,10,13,07,6.60
2017,04,10,13,08,6.50
2017,04,10,13,09,6.40
2017,04,10,13,10,6.40
2017,04,10,13,11,6.30
2017,04,10,13,12,6.30
2017,04,10,13,13,6.30
2017,04,10,13,14,6.30
2017,04,10,13,15,6.30
2017,04,10,13,16,6.30
2017,04,10,13,17,6.30
2017,04,10,13,18,6.30
2017,04,10,13,19,6.30
2017,04,10,13,20,6.30
2017,04,10,13,21,6.30
2017,04,10,13,22,6.30
2017,04,10,13,23,6.30
2017,04,10,13,24,6.20
2017,04,10,13,25,6.20
2017,04,10,13,26,6.20
2017,04,10,13,27,6.10
2017,04,10,13,28,6.10
2017,04,10,13,29,6.10
2017,04,10,13,30,6.00
2017,04,10,13,31,5.90
2017,04,10,13,32,5.90
2017,04,10,13,33,5.80
2017,04,10,13,34,5.70
2017,04,10,13,35,5.70
2017,04,10,13,36,5.60
2017,04,10,13,37,5.50
2017,04,10,13,38,5.40
2017,04,10,13,39,5.30
2017,04,10,13,40,5.30
2017,04,10,13,41,5.20
2017,04,10,13,42,5.20
2017,04,10,13,43,5.20
2017,04,10,13,44,5.10
2017,04,10,13,45,5.10
2017,04,10,13,46,5.00
2017,04,10,13,47,5.00
2017,04,10,13,48,4.90
2017,04,10,13,49,4.90
2017,04,10,13,50,4.90
2017,04,10,13,51,4.80
2017,04,10,13,52,4.80
2017,04,10,13,53,4.80
2017,04,10,13,54,4.80
2017,04,10,13,55,4.80
2017,04,10,13,56,4.80
2017,04,10,13,57,4.80
2017,04,10,13,58,4.80
2017,04,10,13,59,4.80
2017,04,10,14,00,4.80
2017,04,10,14,01,4.80
2017,04,10,14,02,4.80
2017,04,10,14,03,4.80
2017,04,10,14,04,4.80
2017,04,10,14,05,4.80
2017,04,10,14,06,4.80
2017,04,10,14,07,4.90
2017,04,10,14,08,4.80
2017,04,10,14,09,4.80
2017,04,10,14,10,4.80
2017,04,10,14,11,4.80
2017,04,10,14,12,4.80
2017,04,10,14,13,4.80
2017,04,10,14,14,4.80
2017,04,10,14,15,4.70
2017,04,10,14,16,4.70
2017,04,10,14,17,4.70
2017,04,10,14,18,4.60
2017,04,10,14,19,4.60
2017,04,10,14,20,4.50
2017,04,10,14,21,4.50
2017,04,10,14,22,4.50
2017,04,10,14,23,4.50
2017,04,10,14,24,4.50
2017,04,10,14,25,4.50
2017,04,10,14,26,4.50
2017,04,10,14,27,4.50
2017,04,10,14,28,4.50
2017,04,10,14,29,4.50
2017,04,10,14,30,4.50
2017,04,10,14,31,4.50
2017,04,10,14,32,4.60
2017,04,10,14,33,4.60
2017,04,10,14,34,4.60
2017,04,10,14,35,4.60
2017,04,10,14,36,4.50
2017,04,10,14,37,4.50
2017,04,10,14,38,4.50
2017,04,10,14,39,4.50
2017,04,10,14,40,4.50
2017,04,10,14,41,4.50
2017,04,10,14,42,4.50
2017,04,10,14,43,4.50
2017,04,10,14,44,4.60
2017,04,10,14,45,4.60
2017,04,10,14,46,4.60
2017,04,10,14,47,4.50
2017,04,10,14,48,4.50
2017,04,10,14,49,4.50
2017,04,10,14,50,4.50
2017,04,10,14,51,4.50
2017,04,10,14,52,4.40
2017,04,10,14,53,4.40
2017,04,10,14,54,4.40
2017,04,10,14,55,4.40
2017,04,10,14,56,4.40
2017,04,10,14,57,4.40
2017,04,10,14,58,4.40
2017,04,10,14,59,4.30
2017,04,10,15,00,4.40
2017,04,10,15,01,4.30
2017,04,10,15,02,4.30
2017,04,10,15,03,4.30
2017,04,10,15,04,4.30
2017,04,10,15,05,4.30
2017,04,10,15,06,4.30
2017,04,10,15,07,4.30
2017,04,10,15,08,4.30
2017,04,10,15,09,4.30
2017,04,10,15,10,4.30
2017,04,10,15,11,4.30
2017,04,10,15,12,4.40
2017,04,10,15,13,4.40
2017,04,10,15,14,4.40
2017,04,10,15,15,4.40
2017,04,10,15,16,4.50
2017,04,10,15,17,4.50
2017,04,10,15,18,4.60
2017,04,10,15,19,4.60
2017,04,10,15,20,4.60
2017,04,10,15,21,4.60
2017,04,10,15,22,4.70
2017,04,10,15,23,4.60
2017,04,10,15,24,4.60
2017,04,10,15,25,4.70
2017,04,10,15,26,4.70
2017,04,10,15,27,4.70
2017,04,10,15,28,4.80
2017,04,10,15,29,4.80
2017,04,10,15,30,4.80
2017,04,10,15,31,4.80
2017,04,10,15,32,4.80
2017,04,10,15,33,4.90
2017,04,10,15,34,4.90
2017,04,10,15,35,4.90
2017,04,10,15,36,4.90
2017,04,10,15,37,4.90
2017,04,10,15,38,4.90
2017,04,10,15,39,5.00
2017,04,10,15,40,5.00
2017,04,10,15,41,5.00
2017,04,10,15,42,5.00
2017,04,10,15,43,5.10
2017,04,10,15,44,5.10
2017,04,10,15,45,5.10
2017,04,10,15,46,5.10
2017,04,10,15,47,5.10
2017,04,10,15,48,5.20
2017,04,10,15,49,5.20
2017,04,10,15,50,5.20
2017,04,10,15,51,5.20
2017,04,10,15,52,5.20
2017,04,10,15,53,5.30
2017,04,10,15,54,5.30
2017,04,10,15,55,5.30
2017,04,10,15,56,5.30
2017,04,10,15,57,5.30
2017,04,10,15,58,5.40
2017,04,10,15,59,5.40
2017,04,10,16,00,5.40
2017,04,10,16,01,5.50
2017,04,10,16,02,5.50
2017,04,10,16,03,5.50
2017,04,10,16,04,5.50
2017,04,10,16,05,5.50
2017,04,10,16,06,5.60
2017,04,10,16,07,5.60
2017,04,10,16,08,5.70
2017,04,10,16,09,5.70
2017,04,10,16,10,5.80
2017,04,10,16,11,5.80
2017,04,10,16,12,5.90
2017,04,10,16,13,5.90
2017,04,10,16,14,5.90
2017,04,10,16,15,6.00
2017,04,10,16,16,6.00
2017,04,10,16,17,6.10
2017,04,10,16,18,6.10
2017,04,10,16,19,6.10
2017,04,10,16,20,6.10
2017,04,10,16,21,6.20
2017,04,10,16,22,6.20
2017,04,10,16,23,6.20
2017,04,10,16,24,6.20
2017,04,10,16,25,6.20
2017,04,10,16,26,6.30
2017,04,10,16,27,6.30
2017,04,10,16,28,6.30
2017,04,10,16,29,6.30
2017,04,10,16,30,6.30
2017,04,10,16,31,6.30
2017,04,10,16,32,6.30
2017,04,10,16,33,6.30
2017,04,10,16,34,6.30
2017,04,10,16,35,6.40
2017,04,10,16,36,6.40
2017,04,10,16,37,6.50
2017,04,10,16,38,6.60
2017,04,10,16,39,6.60
2017,04,10,16,40,6.60
2017,04,10,16,41,6.70
2017,04,10,16,42,6.70
2017,04,10,16,43,6.80
2017,04,10,16,44,6.80
2017,04,10,16,45,6.80
2017,04,10,16,46,6.80
2017,04,10,16,47,6.80
2017,04,10,16,48,6.90
2017,04,10,16,49,6.80
2017,04,10,16,50,6.80
2017,04,10,16,51,6.80
2017,04,10,16,52,6.80
2017,04,10,16,53,6.70
2017,04,10,16,54,6.70
2017,04,10,16,55,6.70
2017,04,10,16,56,6.70
2017,04,10,16,57,6.70
2017,04,10,16,58,6.70
2017,04,10,16,59,6.70
2017,04,10,17,00,6.70
2017,04,10,17,01,6.70
2017,04,10,17,02,6.70
2017,04,10,17,03,6.70
2017,04,10,17,04,6.70
2017,04,10,17,05,6.70
2017,04,10,17,06,6.70
2017,04,10,17,07,6.70
2017,04,10,17,08,6.70
2017,04,10,17,09,6.60
2017,04,10,17,10,6.70
2017,04,10,17,11,6.70
2017,04,10,17,12,6.70
2017,04,10,17,13,6.70
2017,04,10,17,14,6.70
2017,04,10,17,15,6.70
2017,04,10,17,16,6.70
2017,04,10,17,17,6.70
2017,04,10,17,18,6.70
2017,04,10,17,19,6.70
2017,04,10,17,20,6.70
2017,04,10,17,21,6.70
2017,04,10,17,22,6.70
2017,04,10,17,23,6.70
2017,04,10,17,24,6.70
2017,04,10,17,25,6.70
2017,04,10,17,26,6.70
2017,04,10,17,27,6.70
2017,04,10,17,28,6.70
2017,04,10,17,29,6.70
2017,04,10,17,30,6.70
2017,04,10,17,31,6.70
2017,04,10,17,32,6.70
2017,04,10,17,33,6.70
2017,04,10,17,34,6.70
2017,04,10,17,35,6.70
2017,04,10,17,36,6.70
2017,04,10,17,37,6.70
2017,04,10,17,38,6.70
2017,04,10,17,39,6.70
2017,04,10,17,40,6.70
2017,04,10,17,41,6.70
2017,04,10,17,42,6.70
2017,04,10,17,43,6.70
2017,04,10,17,44,6.70
2017,04,10,17,45,6.70
2017,04,10,17,46,6.70
2017,04,10,17,47,6.70
2017,04,10,17,48,6.70
2017,04,10,17,49,6.70
2017,04,10,17,50,6.70
2017,04,10,17,51,6.70
2017,04,10,17,52,6.70
2017,04,10,17,53,6.70
2017,04,10,17,54,6.70
2017,04,10,17,55,6.70
2017,04,10,17,56,6.70
2017,04,10,17,57,6.70
2017,04,10,17,58,6.70
2017,04,10,17,59,6.70
2017,04,10,18,00,6.70
2017,04,10,18,01,6.70
2017,04,10,18,02,6.70
2017,04,10,18,03,6.70
2017,04,10,18,04,6.70
2017,04,10,18,05,6.60
2017,04,10,18,06,6.70